Regional Weather Roundup
Issued by NWS Upton, NY

Current Version | Previous Version | Graphics & Text | Print | Product List | Glossary Off
Versions: 1 2 3 4 5 6 7 8 9 10 11 12 13 14 15 16 17 18 19 20 21 22 23 24 25 26 27
000 ASUS41 KOKX 270308 RWROKX REGIONAL WEATHER ROUNDUP NATIONAL WEATHER SERVICE NEW YORK NY 1000 PM EST SUN FEB 26 2017 NOTE: "FAIR" INDICATES FEW OR NO CLOUDS BELOW 12,000 FEET WITH NO SIGNIFICANT WEATHER AND/OR OBSTRUCTIONS TO VISIBILITY. NYZ071-072-176-178-NJZ106-104-270400- NEW YORK CITY METRO AREA CITY SKY/WX TMP DP RH WIND PRES REMARKS Central Park N/A 37 15 40 W9 30.25R WCI 30 Wall St Helipt NOT AVBL LaGuardia APRT N/A 40 17 39 W14 30.24R WCI 32 Kennedy INTL N/A 38 17 42 W12 30.26R WCI 30 Breezy Point N/A 36 N/A N/A W8 N/A WCI 29 Newark/Liberty N/A 37 15 40 W7 30.24R WCI 32 Teterboro N/A 37 17 44 W6 30.23R WCI 32 $$ NYZ177-179-078>081-270400- LONG ISLAND NEW YORK CITY SKY/WX TMP DP RH WIND PRES REMARKS Jones Beach N/A 37 N/A N/A W13 N/A WCI 29 Matinecock PT N/A 37 N/A N/A W14 N/A WCI 29 Farmingdale N/A 34 18 52 W3 30.24R MacArthur/ISP N/A 33 18 53 W5 30.23R WCI 29 Shirley N/A 30 18 60 CALM 30.24R Westhampton N/A 29 16 58 W3 30.25R Southampton NOT AVBL Bridgehampton NOT AVBL East Hampton N/A 34 17 48 W5 30.22R WCI 30 Montauk N/A 37 21 52 NW8 30.22R WCI 31 $$ NYZ052-065-067-270400- HUDSON VALLEY CITY SKY/WX TMP DP RH WIND PRES REMARKS White Plains N/A 33 14 45 W6 30.20R WCI 28 Newburgh MOCLDY 30 19 64 W8 30.21R WCI 23 Montgomery N/A 25 19 78 SW5 30.19S WCI 19 Poughkeepsie N/A 29 20 69 CALM 30.20S Albany N/A 27 18 69 S6 30.17R WCI 20 $$ NJZ001-105-106-008-010-013-015-019>022-104-270400- NEW JERSEY CITY SKY/WX TMP DP RH WIND PRES REMARKS Newark/Liberty N/A 37 15 40 W7 30.24R WCI 32 Teterboro N/A 37 17 44 W6 30.23R WCI 32 Caldwell N/A 34 15 46 VRB3 30.25R Somerville N/A 27 19 72 CALM 30.24R Linden NOT AVBL Sussex N/A 27 20 75 CALM 30.21R Andover N/A 29 17 61 CALM 30.22R Trenton N/A 34 18 52 W5 30.26R WCI 30 Millville N/A 26 22 84 CALM 30.29R Atlantic City N/A 32 18 56 W3 30.28R Wrightstown N/A 34 17 50 W3 30.25R Toms River N/A 26 21 81 CALM 30.29R Belmar N/A 33 17 51 SW6 30.27R WCI 28 $$ PAZ047>061-062-071-270400- EASTERN PENNSYLVANIA CITY SKY/WX TMP DP RH WIND PRES REMARKS Philadelphia N/A 36 18 48 W5 30.29R WCI 32 Allentown N/A 31 16 54 W3 30.25R Scranton N/A 31 16 54 SW7 30.19R WCI 24 $$ CTZ002-004>006-009-010-012-RIZ004-006-007-MAZ004-011-015-270400- SOUTHERN NEW ENGLAND IN CT CITY SKY/WX TMP DP RH WIND PRES REMARKS Bradley INTL N/A 31 17 56 W3 30.19R Hartford N/A 31 21 66 CALM 30.21R Danbury N/A 30 15 53 SW5 30.20R WCI 25 Wtrbury/Oxford N/A 30 12 47 W3 30.19R Bridgeport N/A 35 16 45 W7 30.22R WCI 29 Meriden N/A 28 19 69 CALM 30.21R New Haven N/A 35 17 47 W5 30.22R WCI 31 Chester N/A 30 18 59 CALM 30.19R Groton N/A 32 18 56 W5 30.21R WCI 27 Wilimantic N/A 32 18 56 CALM 30.20R IN RI CITY SKY/WX TMP DP RH WIND PRES REMARKS Providence N/A 33 15 47 W8 30.19R WCI 26 Block Island N/A 35 18 49 NW9 30.21R WCI 28 Westerly N/A 33 14 45 CALM 30.21R IN MA CITY SKY/WX TMP DP RH WIND PRES REMARKS Boston N/A 34 15 46 W14 30.16R WCI 25 Worcester N/A 27 15 61 W9 30.11R WCI 18 Westfield N/A 30 18 60 SW5 30.17R WCI 25 Provincetown N/A 36 19 50 W21G29 30.15R WCI 25 Nantucket N/A 36 15 42 NW16G32 30.16R WCI 26 $$ ANZ330-335-338-340-345-350-353-355-270400- COASTAL MARINE OBSERVATIONS STATION/POSITION TIME SKY/WX TEMP WIND PRES VSBY WAVE AIR SEA DIR/SP/G HT/PER (UTC) (F) (DEG/KT/KT) (MB) (MI) (FT/S) NY HARB ENTRANCE 0250 40 42 290/ 16/ 19 1024.1 3/10 20 S FIRE ISLAND 0250 40 43 300/ 19/ 21 1023.8 5/ 5 GREAT SOUTH BAY NOT AVBL 23 SSW MONTAUK P 0150 39 44 1022.5 5/10 15 E BARNEGAT LI 0230 44 N/A 4/11 HUDSON CANYON 0150 47 1023.7 7/ 6 KINGS POINT 0242 40 N/A EXECUTION ROCKS NOT AVBL CENTRAL LI SOUND 0215 38 300/ 16/ 17 N/A 3/ 4 EASTERN LI SOUND NOT AVBL ROBBINS REEF 0242 37 280/ 11/ 12 1024.6 $$ >>>>>>>>>>>>>>>>>>>>>>>>>>>> KEY <<<<<<<<<<<<<<<<<<<<<<<<<<< > < > SKY/WX - Sky Condition/Present Weather < > TMP - Temperature in Fahrenheit < > DP - Dew Point in Fahrenheit < > RH - Relative Humidity in Percent < > WIND - Direction (from) and Speed in MPH < > PRES - Mean Sea Level Pressure (inches of Hg) < > WCI - Wind Chill Index < > VSB - VISIBILITY IN MILES < > HX - HEAT INDEX < > TC - TEMPERATURE IN CELSIUS < > VRB - VARIABLE WIND DIRECTION < > < >>>>>>>>>>>>>>>>>>>>>>>>>>>> KEY <<<<<<<<<<<<<<<<<<<<<<<<<<<

USA.gov is the U.S. government's official web portal to all federal, state and local government web resources and services.